Location: Liberec
(50.7830°N, 15.0500°E)
Time: 05:42:32
(UTC+02:00)

ISS - Pass Details

Date: 19 May 2021
Orbit: 417 x 422 km, 51.6° (Epoch: 13 June)

Event Time Altitude Azimuth Distance (km) Brightness Sun altitude
Rises 00:29:56 0° 280° (W) 2,369 0.3 -19.2°
Reaches altitude 10° 00:32:02 10° 281° (WNW) 1,505 -0.7 -19.3°
Maximum altitude 00:35:25 86° 8° (N) 427 -3.8 -19.3°
Enters shadow 00:36:17 48° 96° (E) 562 -3.3 -19.3°
